Find CubeL

NORAD ID: 47448 Int'l Des: 2021-006 Owner: DLR2 Country: D operational
LEOCIRCULARRETROGRADESSO

現在のビュー

3D地球を読み込み中...

About CubeL

CubeL (NORAD 47448) is a satellite launched Jan 24, 2021 by DLR2 of D. It operates in LEO, CIRCULAR, RETROGRADE, SSO orbit with a mass of 4.00 kg.

次回通過

Passes for default location (London). Set your location on the main map for personalized predictions.

高度履歴

Loading altitude history...

軌道要素

1 47448U 21006AM 26194.64421567 .00005732 00000-0 13646-3 0 9993
2 47448 97.2318 244.9902 0007966 86.8494 273.3665 15.41977358303835
Epoch: Jul 13, 2026 • Age: 11 hours

現在のステータス

高度 463.0 km
遠地点 / 近地点 N/A
速度 7.63 km/s
衛星直下点 -48.70°S, 70.54°W
打ち上げ日 Jan 24, 2021
運用期間 5.4 years
タイプ other

技術仕様

分類 Payload
質量 4.00 kg
乾燥質量 4.00 kg
総質量 4.00 kg
長さ 0.30 m
直径 0.10 m
スパン 0.30 m
形状 Box
製造者 DLR2/GOMSP
バスタイプ Cubesat 3U
フェーズステータス In Orbit
所有者/国 DLR2/D

Most Searched